sat.trackr.live / text

‹ back to catalog

STARLINK-3839

NORAD 52480 · 2022-049AF

PAYLOAD ACTIVE UNKNOWN

§ Identity

Operator
Country
US
Launch date
2022-05-06
Launch site
AFETR
Launch vehicle
Mass (kg)
RCS (m²)

Purposes: comms

External: N2YO · Heavens-Above · Gunter

§ Orbital elements

Epoch: 2026-09-19T14:17:34.824480Z

Period
93.85 min
Inclination
53.1597°
Eccentricity
0.0001173
Mean motion
15.34390398 rev/d
Perigee alt
461.9 km
Apogee alt
463.5 km
Semi-major
6,840.9 km
B*
1.1715e-5
RAAN
257.6419°
Arg perigee
81.0972°
Mean anomaly
279.0163°
Rev number
24,167

§ Raw data

STARLINK-38391 52480U 22049AF  26262.59554195  .00000020  00000+0  11715-4 0  99972 52480  53.1597 257.6419 0001173  81.0972 279.0163 15.34390398241677

JSON: /api/v1/satellites/52480 · /tle

For live sub-satellite position, see the globe view (requires WebGL).

§ Visibility from observer

Set your observer location to see the next 7 days of passes ≥ 10°. The values pass through the URL so the page stays shareable.

No JS? Fill the form by hand. The geolocation button needs JavaScript.